Wind_Speed
5 6 8 9 10 11 12 13 14 15 16 16 16 16 17 18 19 18 17 17 17 18 18 19 19 15 14 14 14 13 12 12 11 11 12 10 10 8 7 6 5 6 5
4 4 3 5 7 9 9 10 12 13 12 12 13 13 14 15 16 17 16 16 15 15 16 17 19 16 15 14 14 15 15 13 12 13 13 12 11 11 10 10 9 8 6
6 6 5 4 5 8 8 9 9 10 11 11 10 11 11 12 12 13 14 14 14 14 13 14 15 15 15 15 13 13 14 15 15 15 15 16 15 14 14 13 13 13 8
9 9 8 8 8 8 8 8 8 8 9 10 10 9 10 10 10 10 11 11 12 12 11 11 12 12 11 11 10 9 11 11 11 11 12 12 12 12 12 13 14 14 11
14 12 12 11 11 10 10 9 8 9 9 9 9 9 9 9 8 9 8 8 8 9 9 9 9 9 8 6 6 6 6 7 6 6 7 8 9 10 11 12 12 14 14
16 17 16 16 15 13 14 13 11 10 10 10 9 9 10 10 9 8 8 7 7 6 6 6 7 7 6 6 5 5 5 4 4 4 4 4 6 7 7 8 8 9 9
19 20 20 20 19 18 17 16 16 14 13 12 11 11 11 11 10 10 10 9 8 7 6 5 5 5 5 5 5 5 6 7 6 5 5 5 4 5 6 6 6 6 6
20 20 22 22 22 21 22 20 18 17 17 17 16 15 13 13 12 12 12 11 11 9 8 7 6 6 6 5 6 6 5 5 7 7 6 6 7 7 6 6 7 7 7
20 22 23 24 23 24 25 24 24 22 21 21 21 19 18 17 17 15 15 15 14 13 12 10 8 8 8 7 7 7 6 5 5 6 6 6 7 8 9 9 8 9 9
22 24 24 24 25 26 28 28 28 27 26 26 25 24 23 23 22 21 19 18 18 18 16 15 13 12 11 10 9 9 8 7 7 7 8 7 7 8 9 11 12 11 11
22 26 27 26 25 26 28 30 30 29 30 30 30 29 27 26 26 25 25 23 22 21 21 19 18 16 15 15 13 12 11 9 9 9 9 9 9 10 9 11 12 12 14
19 21 24 27 28 29 29 30 31 31 31 31 32 33 32 31 29 29 29 28 27 25 25 25 22 21 20 19 20 18 17 15 14 12 12 12 11 11 12 12 13 13 13
21 21 23 24 26 28 29 30 32 33 33 34 34 34 34 35 35 34 33 32 31 30 29 29 28 26 25 25 24 24 23 22 21 19 17 16 15 14 15 15 15 15 15
21 22 22 23 25 27 27 29 30 31 33 35 36 37 37 37 38 38 38 37 36 35 34 33 33 32 30 29 29 29 27 27 26 25 24 23 22 21 20 19 17 17 17
24 23 24 25 27 29 30 30 31 32 32 33 35 37 38 39 40 41 41 40 40 39 38 37 36 36 35 34 33 33 32 31 30 29 27 27 27 25 24 24 22 20 19
26 26 24 25 27 30 31 32 33 35 36 37 37 37 39 41 42 43 44 44 43 43 42 41 40 40 40 38 37 36 35 35 33 32 32 30 29 28 27 25 25 23 22
25 26 28 26 26 28 31 33 35 37 38 41 44 44 43 43 43 44 45 46 46 46 46 45 43 43 43 42 41 39 38 38 37 35 34 33 33 31 30 28 27 26 25
31 32 34 36 37 37 37 38 40 40 42 44 46 48 51 51 49 48 48 48 49 48 48 48 47 46 46 45 44 42 41 40 39 37 36 35 34 34 33 31 29 28 27
37 40 42 44 45 46 48 47 46 45 48 49 50 51 53 53 52 53 52 54 55 54 52 52 51 50 50 48 46 45 44 42 40 38 37 36 36 36 36 34 32 30 29
43 45 47 49 50 51 51 50 50 49 47 46 49 52 55 55 55 53 52 55 57 58 59 58 55 54 52 52 50 48 46 45 43 41 40 38 36 37 37 37 35 33 32
42 44 46 48 49 50 52 54 55 56 55 55 52 47 52 52 52 52 52 52 55 57 58 59 60 59 57 56 54 51 50 49 45 43 42 41 39 38 37 38 37 36 34
43 44 46 48 51 53 56 57 58 59 61 61 61 61 56 57 55 56 57 57 56 56 55 56 57 59 57 57 56 56 53 51 46 45 44 43 41 39 39 39 39 39 38
50 53 55 57 56 55 55 56 59 62 66 67 68 70 72 70 68 65 63 64 62 63 57 52 53 53 55 57 57 58 57 53 50 48 46 44 43 42 41 41 40 41 40
58 60 62 64 64 64 63 60 58 61 64 68 71 71 73 76 77 75 71 68 65 66 65 63 59 57 55 53 56 57 58 56 52 50 48 47 45 45 44 42 41 41 41
62 64 65 66 66 63 60 59 59 60 61 63 69 73 73 72 75 77 78 78 76 73 73 72 70 67 64 62 59 60 57 56 55 51 48 49 49 47 46 44 43 42 43
65 67 69 70 66 62 61 61 62 64 65 66 68 69 69 71 76 81 83 84 83 81 78 78 78 76 73 72 66 63 63 59 55 53 49 50 52 50 48 47 45 44 43
Wind_Direction
18 33 38 37 30 32 29 27 29 32 32 33 37 37 41 43 43 44 42 41 39 34 36 39 39 39 38 36 35 36 41 50 49 46 40 36 33 22 8 353 337 320 325
319 342 8 23 13 11 14 13 12 14 20 21 23 26 31 37 40 41 42 41 41 37 32 33 38 45 42 45 53 53 52 50 49 51 50 47 43 36 29 12 357 348 325
279 289 300 321 338 345 347 347 350 352 357 3 12 14 19 26 30 32 35 38 40 40 33 32 36 43 54 64 65 60 58 57 57 56 52 48 49 45 39 31 24 27 27
267 275 283 293 299 308 314 321 325 331 342 349 354 -0 359 6 13 18 23 26 30 38 36 30 35 39 47 54 52 62 59 56 52 49 43 39 39 40 37 35 34 40 40
277 278 278 278 283 288 293 300 310 318 322 328 337 339 340 341 349 355 3 6 14 23 32 31 28 32 34 36 36 36 44 48 47 38 30 31 32 33 33 33 35 38 46
274 271 274 274 273 274 281 286 290 296 302 308 313 317 318 321 322 324 329 337 343 354 6 19 16 25 22 6 359 345 337 350 351 354 357 1 8 19 15 18 24 27 44
280 277 271 271 271 273 273 277 282 286 289 291 295 298 301 300 302 304 305 306 311 319 327 336 342 346 357 353 349 345 341 337 319 306 310 308 321 347 358 350 348 356 3
280 276 274 272 273 272 272 272 275 279 283 284 284 287 287 287 286 285 289 292 290 292 297 298 304 305 306 310 317 325 338 339 328 323 306 286 289 302 313 327 323 316 316
286 281 278 278 279 275 274 272 270 270 274 277 279 281 281 281 278 277 276 279 282 282 280 279 281 284 289 286 288 293 301 304 304 306 309 297 281 284 291 297 302 308 302
290 287 284 280 276 275 274 273 272 270 271 272 275 275 278 277 277 274 272 271 272 273 274 276 271 270 274 276 281 282 284 285 286 288 290 293 294 291 288 287 285 285 293
298 299 297 293 288 280 275 273 271 270 269 268 268 268 269 273 275 274 272 270 269 269 269 266 269 269 267 270 270 271 276 281 283 282 283 285 285 286 289 290 290 286 277
299 295 294 294 295 294 288 281 276 273 271 270 269 267 266 266 268 270 270 269 268 266 267 267 263 264 266 264 266 268 269 269 273 277 280 282 284 288 290 287 286 285 284
294 290 288 287 287 287 288 289 287 281 275 272 271 268 266 266 267 265 264 263 264 265 265 266 266 263 263 265 264 264 265 266 266 268 270 273 278 282 286 288 287 283 280
292 290 287 288 288 286 283 284 284 284 284 282 276 272 269 266 264 264 264 264 261 260 261 263 264 266 263 262 264 265 263 265 266 265 265 267 270 275 280 283 283 283 279
287 284 283 282 280 281 283 282 283 282 280 279 281 278 272 268 267 267 265 262 262 261 261 260 260 262 263 262 262 264 265 264 265 266 266 266 268 271 273 276 279 279 277
293 290 286 283 281 279 277 277 276 275 276 276 273 272 274 274 271 269 267 267 263 262 262 261 261 262 262 262 262 263 265 267 266 266 267 267 266 268 269 270 272 274 274
301 301 299 292 285 284 284 281 277 274 272 270 272 271 269 268 270 271 270 268 267 265 264 262 260 261 261 261 261 261 263 265 268 268 268 267 266 266 267 267 267 269 270
297 295 292 290 288 286 281 279 276 273 270 268 267 268 270 267 264 263 266 267 267 267 266 266 265 262 262 262 263 263 263 265 267 269 269 268 266 265 264 265 264 264 266
289 288 287 285 285 284 283 282 280 276 269 264 264 263 261 263 266 264 261 260 260 260 261 264 265 266 264 263 263 265 264 264 264 265 266 266 265 264 264 263 263 262 262
291 289 288 289 288 287 285 282 278 274 271 269 267 266 264 261 260 261 262 260 259 260 261 260 260 261 261 263 262 261 261 262 263 264 262 263 262 263 263 263 262 262 260
291 290 289 287 286 285 284 282 279 276 272 265 263 263 257 256 257 259 261 261 262 262 259 259 260 260 259 259 259 260 260 261 261 263 263 262 261 261 262 262 261 261 261
298 295 291 288 287 285 283 281 277 275 274 271 266 258 256 253 258 261 259 260 259 260 262 262 260 259 258 259 258 259 258 259 260 259 261 262 260 260 260 260 261 261 261
302 301 299 298 296 292 288 281 277 275 273 269 266 264 262 258 254 255 257 259 260 257 257 260 262 261 258 258 257 257 256 256 256 257 257 259 260 259 258 258 259 260 261
304 302 301 300 298 296 293 288 280 274 269 269 270 268 264 264 261 258 258 258 257 256 254 255 256 258 258 259 257 255 255 254 253 253 256 256 257 258 257 257 258 260 262
304 303 302 301 299 296 292 288 285 281 279 274 270 269 269 269 267 267 266 262 259 256 255 255 257 257 258 255 258 255 252 252 252 251 250 253 252 254 256 257 258 260 261
302 301 300 300 297 294 292 290 288 286 284 282 279 276 272 270 270 271 270 269 267 263 258 254 254 256 256 259 257 257 253 251 250 250 248 249 251 252 253 255 257 258 260
Height
5918 5917 5916 5915 5915 5913 5912 5911 5910 5908 5906 5905 5903 5902 5900 5899 5898 5896 5895 5894 5893 5892 5889 5888 5886 5885 5884 5883 5883 5881 5880 5879 5879 5879 5879 5879 5877 5877 5877 5877 5876 5876 5876
5918 5917 5916 5915 5915 5915 5914 5913 5911 5909 5907 5905 5904 5903 5902 5900 5898 5897 5896 5895 5894 5893 5890 5889 5887 5886 5885 5884 5883 5883 5882 5881 5880 5880 5879 5878 5878 5878 5877 5877 5876 5875 5875
5917 5917 5916 5916 5915 5915 5914 5913 5911 5909 5907 5906 5904 5903 5901 5900 5899 5898 5896 5895 5894 5893 5892 5890 5888 5887 5886 5885 5885 5884 5883 5883 5882 5881 5881 5880 5879 5878 5877 5877 5875 5874 5874
5916 5916 5916 5916 5915 5914 5912 5911 5910 5908 5907 5905 5904 5903 5902 5900 5899 5898 5897 5896 5894 5893 5892 5891 5889 5888 5887 5886 5886 5885 5884 5883 5883 5883 5882 5881 5880 5880 5878 5877 5876 5875 5874
5916 5916 5915 5914 5914 5912 5911 5910 5909 5908 5907 5905 5904 5903 5901 5900 5899 5898 5897 5895 5894 5893 5892 5891 5889 5888 5887 5886 5886 5885 5884 5884 5883 5882 5882 5881 5880 5880 5879 5878 5877 5876 5875
5913 5913 5913 5912 5911 5910 5910 5908 5907 5906 5905 5904 5903 5902 5900 5899 5898 5897 5896 5894 5893 5892 5891 5889 5889 5888 5886 5885 5885 5884 5884 5883 5882 5882 5881 5880 5880 5879 5879 5878 5878 5877 5876
5911 5911 5910 5909 5908 5908 5907 5906 5906 5905 5904 5902 5901 5900 5899 5898 5897 5896 5894 5894 5892 5891 5890 5889 5887 5886 5885 5884 5883 5883 5882 5881 5881 5881 5880 5880 5879 5878 5878 5878 5877 5877 5877
5907 5907 5906 5906 5905 5905 5904 5903 5902 5902 5901 5900 5899 5898 5897 5896 5895 5894 5893 5891 5890 5889 5888 5887 5886 5884 5883 5882 5881 5881 5880 5880 5879 5878 5878 5878 5878 5877 5877 5877 5877 5876 5876
5902 5902 5902 5902 5902 5902 5901 5900 5899 5898 5897 5896 5896 5895 5894 5893 5892 5891 5890 5889 5888 5887 5886 5885 5884 5883 5882 5880 5879 5879 5879 5878 5878 5877 5877 5876 5876 5875 5875 5875 5874 5874 5875
5898 5897 5897 5898 5898 5897 5896 5895 5894 5893 5892 5892 5891 5891 5890 5889 5888 5888 5887 5885 5884 5884 5883 5882 5882 5880 5879 5878 5877 5876 5876 5876 5875 5875 5874 5874 5873 5873 5873 5873 5872 5872 5872
5896 5894 5894 5893 5893 5892 5891 5889 5888 5887 5887 5886 5885 5885 5885 5884 5883 5883 5882 5881 5881 5880 5879 5878 5878 5878 5877 5875 5874 5874 5873 5872 5872 5871 5871 5871 5871 5870 5870 5870 5870 5870 5870
5893 5891 5889 5888 5887 5886 5885 5884 5883 5882 5881 5880 5880 5879 5878 5878 5877 5877 5876 5876 5875 5874 5874 5873 5873 5873 5872 5871 5870 5869 5869 5869 5869 5868 5867 5867 5867 5867 5867 5866 5866 5866 5866
5889 5887 5885 5883 5882 5880 5879 5879 5878 5876 5875 5874 5873 5872 5872 5871 5871 5870 5869 5869 5868 5868 5868 5867 5867 5867 5867 5866 5866 5865 5865 5865 5865 5865 5864 5864 5863 5863 5863 5862 5862 5862 5862
5883 5881 5880 5879 5876 5875 5874 5872 5871 5870 5869 5869 5867 5866 5864 5863 5862 5861 5862 5861 5861 5860 5860 5860 5860 5860 5860 5860 5860 5860 5859 5859 5860 5860 5860 5859 5859 5859 5859 5858 5858 5858 5858
5877 5877 5875 5874 5871 5869 5867 5866 5865 5863 5862 5860 5860 5859 5857 5855 5855 5854 5853 5853 5853 5852 5853 5853 5852 5852 5852 5853 5853 5853 5853 5853 5854 5854 5854 5854 5854 5854 5853 5853 5853 5853 5853
5871 5870 5869 5868 5866 5864 5862 5860 5858 5856 5853 5851 5850 5849 5849 5848 5847 5846 5845 5845 5844 5844 5843 5844 5844 5844 5844 5844 5845 5845 5846 5846 5847 5848 5848 5848 5848 5848 5848 5848 5848 5847 5847
5866 5864 5862 5861 5860 5859 5857 5855 5852 5849 5846 5844 5841 5840 5839 5839 5838 5837 5836 5835 5835 5835 5834 5834 5834 5834 5835 5835 5836 5837 5837 5838 5839 5840 5841 5841 5842 5842 5842 5842 5842 5842 5842
5859 5857 5855 5852 5850 5848 5848 5846 5843 5841 5838 5835 5833 5831 5829 5826 5826 5826 5826 5826 5825 5825 5824 5824 5825 5825 5825 5826 5826 5828 5829 5830 5831 5832 5832 5833 5834 5834 5835 5835 5836 5836 5836
5852 5849 5846 5843 5841 5839 5836 5834 5832 5830 5828 5825 5822 5819 5816 5814 5813 5812 5813 5812 5810 5811 5811 5812 5813 5814 5815 5815 5816 5818 5819 5820 5821 5823 5823 5824 5826 5826 5827 5828 5829 5829 5829
5843 5841 5837 5834 5830 5827 5824 5822 5820 5818 5815 5814 5811 5809 5806 5804 5802 5800 5799 5798 5796 5797 5798 5797 5798 5800 5801 5802 5804 5806 5808 5809 5811 5813 5814 5815 5816 5817 5819 5820 5821 5821 5822
5834 5831 5827 5823 5820 5816 5812 5809 5806 5805 5803 5802 5799 5796 5794 5793 5792 5791 5788 5786 5783 5783 5783 5783 5784 5786 5787 5788 5790 5792 5795 5797 5801 5802 5803 5804 5806 5807 5810 5810 5812 5813 5814
5823 5819 5816 5812 5808 5804 5801 5797 5793 5790 5787 5784 5782 5780 5778 5777 5776 5775 5775 5774 5772 5770 5769 5770 5771 5771 5772 5774 5776 5777 5782 5785 5788 5789 5791 5793 5795 5797 5799 5800 5802 5803 5805
5812 5807 5802 5797 5793 5789 5784 5780 5777 5773 5769 5766 5764 5760 5758 5757 5757 5757 5756 5757 5756 5757 5757 5756 5756 5757 5758 5759 5761 5763 5766 5771 5773 5776 5778 5781 5783 5785 5787 5789 5792 5793 5795
5798 5792 5787 5782 5777 5772 5767 5762 5759 5753 5750 5746 5742 5739 5737 5735 5733 5733 5733 5735 5736 5737 5740 5741 5742 5743 5743 5746 5746 5749 5751 5756 5760 5764 5766 5769 5771 5773 5775 5777 5780 5783 5785
5784 5779 5773 5767 5760 5754 5749 5744 5739 5735 5732 5729 5724 5721 5717 5716 5713 5710 5708 5710 5714 5717 5719 5721 5722 5725 5727 5728 5733 5734 5737 5741 5745 5750 5754 5755 5757 5760 5763 5766 5769 5772 5774
5770 5764 5758 5751 5744 5738 5732 5726 5721 5715 5710 5707 5703 5701 5699 5698 5694 5690 5688 5688 5688 5691 5695 5699 5701 5705 5707 5709 5715 5718 5721 5725 5729 5733 5737 5743 5743 5747 5750 5754 5757 5760 5762